This is the latest recevied weather packets stored in our database for station/object S51UL-6. If no packets are shown the sender has not sent any weather packets the latest 10 day(s).
| Time | Temp. | Humidity | Pressure | Rain* | Wind** | Luminosity | Snow |
|---|---|---|---|---|---|---|---|
| 1788631827 | 17.78° C | 85% | 1022 hPa | 250.95 mm | - | - | - |
| 1788631528 | 17.78° C | 85% | 1021.8 hPa | 253.75 mm | - | - | - |
| 1788630328 | 18.33° C | 85% | 1021.5 hPa | 253.75 mm | - | - | - |
| 1788629428 | 18.33° C | 83% | 1021.2 hPa | 231.65 mm | - | - | - |
| 1788629128 | 18.89° C | 83% | 1021.1 hPa | 248.67 mm | - | - | - |
| 1788628528 | 18.89° C | 83% | 1021 hPa | 208.79 mm | - | - | - |
| 1788628229 | 18.89° C | 82% | 1020.8 hPa | 188.21 mm | - | - | - |
| 1788627628 | 19.44° C | 82% | 1020.8 hPa | 147.32 mm | - | - | - |
| 1788627328 | 19.44° C | 82% | 1020.7 hPa | 147.32 mm | - | - | - |
| 1788627031 | 20° C | 82% | 1020.5 hPa | 108.2 mm | - | - | - |
| 1788626730 | 20° C | 82% | 1020.5 hPa | 108.2 mm | - | - | - |
| 1788626428 | 20° C | 81% | 1020.4 hPa | 65.28 mm | - | - | - |
| 1788625828 | 20° C | 81% | 1020.6 hPa | 27.94 mm | - | - | - |
| 1788625529 | 20° C | 81% | 1020.6 hPa | 9.91 mm | - | - | - |
| 1788624629 | 20° C | 81% | 1020.5 hPa | 0 mm | - | - | - |
| 1788623729 | 20.56° C | 80% | 1020.6 hPa | 0 mm | - | - | - |
| 1788623129 | 20.56° C | 80% | 1020.5 hPa | 0 mm | - | - | - |
| 1788622829 | 20.56° C | 80% | 1020.5 hPa | 0 mm | - | - | - |
| 1788622530 | 20.56° C | 80% | 1020.6 hPa | 0 mm | - | - | - |
| 1788621929 | 20° C | 80% | 1020.7 hPa | 0 mm | - | - | - |
| 1788621630 | 20.56° C | 79% | 1020.8 hPa | 0 mm | - | - | - |
| 1788621329 | 20.56° C | 79% | 1020.7 hPa | 0 mm | - | - | - |
| 1788621029 | 20.56° C | 80% | 1020.7 hPa | 0 mm | - | - | - |
| 1788620730 | 20.56° C | 80% | 1020.7 hPa | 0 mm | - | - | - |
| 1788620430 | 20.56° C | 80% | 1020.7 hPa | 0 mm | - | - | - |
* Rain latest hour (hover to see other rain measurements)
** Current wind speed in m/s (hover to see current wind gust speed)